FW6724 Weather Reports


Display with metric or nautical units.
time (UTC)temp
F
wind
direction
speed
MPH
gust
MPH
rain 1hr
in
rain 24hr
in
rain mn
in
humidity
%
barometer
mb
20260509181532 67 213 4.0 12.0 0.00 0.31 0.31 50 1012.7
20260509180032 67 167 6.0 12.0 0.00 0.31 0.31 54 1012.6
20260509174534 67 132 4.0 9.0 0.00 0.31 0.31 55 1012.5
20260509173033 67 79 3.0 10.0 0.00 0.31 0.31 55 1012.4
20260509171539 67 96 4.0 9.0 0.00 0.31 0.31 54 1012.5
20260509170034 68 71 2.0 11.0 0.00 0.31 0.31 52 1012.5
20260509164542 68 128 5.0 14.0 0.00 0.31 0.31 50 1012.5
20260509163052 68 145 8.0 13.0 0.00 0.31 0.31 51 1012.5
20260509161546 69 120 5.0 12.0 0.00 0.31 0.31 51 1012.3
20260509160039 70 133 5.0 12.0 0.00 0.31 0.31 50 1012.1
20260509154540 71 104 4.0 10.0 0.00 0.31 0.31 47 1011.8
20260509153037 71 92 4.0 11.0 0.00 0.31 0.31 48 1011.8
20260509151540 71 83 2.0 11.0 0.00 0.31 0.31 48 1011.6
20260509150036 70 72 5.0 10.0 0.00 0.31 0.31 48 1011.6
20260509144535 70 92 3.0 10.0 0.00 0.31 0.31 49 1011.7
20260509143043 70 74 2.0 9.0 0.00 0.31 0.31 50 1011.8
20260509141534 69 78 2.0 8.0 0.00 0.31 0.31 52 1011.7
20260509140041 69 146 4.0 8.0 0.00 0.31 0.31 54 1011.5
20260509134534 68 155 2.0 9.0 0.00 0.31 0.31 55 1011.5
20260509133036 67 142 4.0 9.0 0.00 0.31 0.31 56 1011.5
20260509131535 66 140 2.0 8.0 0.00 0.31 0.31 58 1011.6
20260509130039 66 115 3.0 9.0 0.00 0.31 0.31 60 1011.7
20260509124540 66 90 3.0 9.0 0.00 0.31 0.31 63 1011.5
20260509123040 65 157 3.0 8.0 0.00 0.31 0.31 63 1011.4
20260509121550 64 115 3.0 8.0 0.00 0.31 0.31 63 1011.4
20260509120036 64 139 4.0 10.0 0.00 0.31 0.31 65 1011.5
20260509114554 63 142 3.0 7.0 0.00 0.31 0.31 65 1011.4
20260509113037 63 150 3.0 8.0 0.00 0.31 0.31 64 1011.8
20260509111536 63 84 2.0 11.0 0.00 0.31 0.31 65 1011.9
20260509110036 62 279 2.0 10.0 0.03 0.31 0.31 66 1011.8
20260509104534 62 296 3.0 9.0 0.09 0.31 0.31 66 1012.4
20260509103032 61 240 4.0 13.0 0.12 0.31 0.31 66 1012.6
20260509101538 61 265 7.0 12.0 0.13 0.30 0.30 64 1011.7
20260509100038 62 242 8.0 13.0 0.10 0.26 0.26 63 1013.0
20260509094543 62 291 4.0 14.0 0.06 0.24 0.22 63 1012.8
20260509093034 61 263 8.0 16.0 0.04 0.21 0.18 63 1012.7
20260509091531 61 246 8.0 17.0 0.04 0.19 0.17 64 1012.1
20260509090054 60 273 7.0 10.0 0.03 0.18 0.16 66 1011.7
20260509084543 60 290 7.0 14.0 0.06 0.18 0.15 66 1011.0
20260509083046 60 271 9.0 12.0 0.04 0.16 0.14 66 1010.6
20260509081536 59 236 7.0 12.0 0.05 0.14 0.12 67 1011.3
20260509080049 59 232 9.0 14.0 0.07 0.14 0.12 67 1010.7
20260509074538 59 308 4.0 8.0 0.05 0.11 0.09 67 1010.5
20260509073036 59 294 5.0 9.0 0.06 0.11 0.09 66 1010.8
20260509071535 60 307 3.0 6.0 0.05 0.09 0.07 64 1010.2
20260509070039 61 242 3.0 6.0 0.05 0.07 0.05 63 1010.9
20260509064538 61 94 1.0 4.0 0.03 0.06 0.03 62 1010.7
20260509063031 62 0 0.0 3.0 0.03 0.05 0.03 60 1011.0
20260509061536 63 84 1.0 7.0 0.01 0.03 0.01 58 1010.6
20260509060036 63 210 2.0 9.0 0.00 0.02 0.00 56 1011.1
20260509054539 62 232 1.0 8.0 0.00 0.02 0.00 58 1011.1
20260509053044 62 288 3.0 5.0 0.00 0.02 0.00 58 1009.8
20260509051533 62 290 3.0 11.0 0.00 0.02 0.00 58 1010.0
20260509050051 62 284 5.0 10.0 0.00 0.02 0.00 58 1010.2
20260509044535 61 274 6.0 9.0 0.00 0.02 0.00 60 1010.4
20260509043042 61 289 6.0 10.0 0.00 0.02 0.00 62 1010.6
20260509041536 61 293 2.0 5.0 0.00 0.02 0.00 63 1010.6
20260509040039 61 265 3.0 7.0 0.00 0.02 0.00 63 1010.4
20260509034533 61 281 3.0 8.0 0.00 0.02 0.00 63 1010.4
20260509033039 61 281 2.0 4.0 0.00 0.02 0.00 63 1010.6
20260509031536 61 281 2.0 4.0 0.00 0.02 0.00 63 1010.8
20260509030034 61 267 3.0 7.0 0.00 0.02 0.00 63 1010.9
20260509024539 61 248 2.0 6.0 0.00 0.02 0.00 62 1010.8
20260509023036 62 0 0.0 0.0 0.00 0.02 0.00 61 1010.9
20260509021532 62 0 0.0 0.0 0.00 0.02 0.00 61 1011.1
20260509020038 62 0 0.0 0.0 0.00 0.02 0.00 62 1011.3
20260509014536 62 106 0.0 3.0 0.00 0.02 0.00 62 1011.5
20260509013038 62 0 0.0 0.0 0.00 0.02 0.00 63 1011.7
20260509011538 62 0 0.0 0.0 0.00 0.02 0.00 63 1011.8
20260509010037 62 0 0.0 0.0 0.00 0.02 0.00 62 1011.9
20260509004536 62 0 0.0 0.0 0.00 0.02 0.00 62 1012.1
20260509003036 62 0 0.0 0.0 0.00 0.02 0.00 61 1012.4
20260509001537 62 0 0.0 0.0 0.00 0.02 0.00 61 1012.7
20260509000043 62 0 0.0 0.0 0.00 0.02 0.00 60 1012.9
20260508234537 62 0 0.0 0.0 0.00 0.02 0.00 61 1013.0
20260508233036 62 0 0.0 0.0 0.00 0.02 0.00 61 1013.1
20260508231545 62 0 0.0 0.0 0.00 0.02 0.00 61 1013.2
20260508230037 62 0 0.0 0.0 0.00 0.02 0.00 61 1013.4
20260508224559 63 0 0.0 0.0 0.00 0.02 0.00 61 1013.6
20260508223038 63 132 1.0 3.0 0.00 0.02 0.00 61 1013.8
20260508221545 63 0 0.0 0.0 0.00 0.02 0.00 60 1013.9
20260508220036 63 0 0.0 0.0 0.00 0.02 0.00 60 1013.8
20260508214541 63 0 0.0 1.0 0.00 0.02 0.02 60 1013.8
20260508213039 63 131 2.0 5.0 0.00 0.02 0.02 59 1013.8
20260508211537 63 121 1.0 4.0 0.00 0.02 0.02 60 1013.8
20260508210037 63 0 0.0 0.0 0.00 0.02 0.02 60 1013.4
20260508204540 63 0 0.0 0.0 0.00 0.02 0.02 60 1013.5
20260508203039 63 0 0.0 0.0 0.00 0.02 0.02 59 1013.5
20260508201541 64 0 0.0 3.0 0.00 0.02 0.02 59 1013.4
20260508200046 64 0 1.0 4.0 0.00 0.02 0.02 58 1013.5
20260508194536 64 108 1.0 3.0 0.00 0.02 0.02 58 1013.3
20260508193049 64 120 2.0 6.0 0.00 0.02 0.02 57 1013.3
20260508191539 65 89 1.0 7.0 0.00 0.02 0.02 56 1013.3
20260508190038 65 91 2.0 6.0 0.00 0.02 0.02 54 1013.1
20260508184538 66 128 2.0 10.0 0.00 0.02 0.02 52 1013.1
20260508183048 66 132 6.0 11.0 0.00 0.02 0.02 51 1013.1